Regional Weather Roundup
Issued by NWS Newport/Morehead, NC

Home | Current Version | Previous Version | Text Only | Print | Product List | Glossary On
Versions: 1 2 3 4 5 6 7 8 9 10 11 12 13 14 15 16 17 18 19 20 21 22 23 24 25 26 27 28 29 30 31 32 33 34 35 36 37 38 39 40 41 42 43 44 45 46 47 48 49 50
000
ASUS42 KMHX 200925
RWRMHX
WEATHER ROUNDUP FOR EASTERN NORTH CAROLINA
NATIONAL WEATHER SERVICE NEWPORT/MOREHEAD CITY NC
500 AM EDT FRI APR 20 2018

NOTE: "FAIR" INDICATES FEW OR NO CLOUDS BELOW 12,000 FEET
WITH NO SIGNIFICANT WEATHER AND/OR OBSTRUCTIONS TO VISIBILITY

NCZ015>017-031-032-045>047-102-103-201000-
NORTH COAST

CITY           SKY/WX    TMP DP  RH WIND       PRES   REMARKS
EDENTON        FAIR      39  33  77 CALM      30.24S
ELIZABETH CITY FAIR      38  31  76 W6        30.22R
KITTY HAWK     FAIR      46  28  50 N6G16     30.20S
MANTEO         FAIR      46  28  48 N16G24    30.22R

$$

NCZ045>047-081-094-103-104-201000-
CENTRAL COAST

CITY           SKY/WX    TMP DP  RH WIND       PRES   REMARKS
FRISCO         FAIR      49  30  48 N14G29    30.21R

$$

NCZ095-097-098-100-101-201000-
SOUTHERN COAST

CITY           SKY/WX    TMP DP  RH WIND       PRES   REMARKS
BEAUFORT       FAIR      46  30  53 N13       30.23R
CEDAR ISLAND   NOT AVBL
JACKSONVILLE   FAIR      45  33  63 N9        30.24R
PINEY ISLAND   NOT AVBL
WILMINGTON     FAIR      46  31  55 N12       30.23R


$$

NCZ011>013-027>030-043-044-078>080-089-090>093-098-201000-
COASTAL PLAIN

CITY           SKY/WX    TMP DP  RH WIND       PRES   REMARKS
AHOSKIE        FAIR      35  31  83 CALM      30.24S
CLINTON        FAIR      44  32  63 N5        30.26S
ELIZABETHTOWN  FAIR      42  31  63 MISG      30.26R
GOLDSBORO      FAIR      43  30  60 NW3       30.24S
GREENVILLE     FAIR      37  34  87 CALM      30.26S
HAVELOCK       NOT AVBL
KENANSVILLE    FAIR      41  32  70 N3        30.25S
KINSTON        FAIR      38  33  81 NW3       30.25S
NEW BERN       FAIR      42  32  67 NE7       30.25S
RICHLANDS      FAIR      42  32  67 N3        30.25R
ROCKY MOUNT    FAIR      38  31  76 NW3       30.25S
WASHINGTON     FAIR      39  32  75 CALM      30.25R
WHITEVILLE     FAIR      45  31  57 N6        30.24R

$$

AMZ130-135-150-152-154-156-158-170-250-252-270-ANZ085-086-088-633-658-670-201000-
MARINE OBSERVATIONS

STATION/POSITION TIME  TEMP    WIND        PRES    WAVE   SWELL
                       AIR SEA DIR/SP/G            HT/PER HT/PER
                 (UTC) (F)     (DEG/KT/KT) (MB)    (FT/S) (FT/S)
CHESAPEAKE LIGHT NOT AVBL
64 E VA BEACH    0850   47 49  330/ 19/ 23 1021.8    8/ 7
DUCK             0900   48 50  350/ 16/ 20 1022.1
2 E DUCK         0900      49                N/A     6/ 6
OREGON INLET     0900   46 59  360/ 11/ 16 1022.9
13E OREGON INLT  0848      52                N/A     8/ 7   7/ 7
HATTERAS CG      0900   50 62  360/ 19/ 23 1022.8
DIAMOND BUOY     0910   51 67  360/ 23/ 33 1023.1
CAPE LOOKOUT     0900           10/ 18/ 22 1023.5
BEAUFORT LAB     0900   49 63   10/ 11/ 17 1023.7
30 SE NEW RVR IN 0908   54 65   60/ 19/ 25 1022.9
30 SE NEW RVR IN 0900      65                N/A     6/ 5
27 SE WRIGHTSVLE 0908   54 65   50/ 25/ 37 1023.1
5 SE WRIGHTSVLE  0908   51 60   20/ 19/ 27 1022.7
225 S CAPE HAT   0910   69 71   30/ 19/ 25 1017.5
41 SE CHARLESTON 0910   57 67   20/ 25/ 31 1021.8

$$




USA.gov is the U.S. government's official web portal to all federal, state and local government web resources and services.